FIN5RB EFHK-EFOU

Flight info

Callsign FIN5RB
Flight time 0h 53m
Altitude 38000
Route TEVRU Y75 SUVIB
Aircraft A20N/M-SDE2E3FGHIRWXY/LB1

Departure

Time 2026-05-07 20:08
Airport Helsinki Vantaa Airport (EFHK)

Arrival

Time 2026-05-07 21:02
Airport Oulu Airport (EFOU)
Time Latitude Longitude Altitude Speed Heading
2026-05-07 19:45 60.31838 24.96469 163 ft 0 kts 135°
2026-05-07 19:51 60.31849 24.96448 164 ft 2 kts 135°
2026-05-07 19:51 60.31859 24.96431 164 ft 2 kts 162°
2026-05-07 19:51 60.31874 24.96421 164 ft 2 kts 162°
2026-05-07 19:52 60.31890 24.96419 164 ft 2 kts 212°
2026-05-07 19:52 60.31895 24.96425 164 ft 0 kts 229°
2026-05-07 19:56 60.31852 24.96276 164 ft 17 kts 261°
2026-05-07 19:56 60.31901 24.96069 163 ft 11 kts 318°
2026-05-07 19:57 60.31949 24.95983 163 ft 10 kts 322°
2026-05-07 19:57 60.31979 24.96011 163 ft 5 kts 58°
2026-05-07 19:57 60.32004 24.96096 164 ft 9 kts 59°
2026-05-07 19:57 60.32043 24.96215 164 ft 12 kts 52°
2026-05-07 19:58 60.32101 24.96356 164 ft 14 kts 47°
2026-05-07 19:58 60.32176 24.96516 164 ft 17 kts 46°
2026-05-07 19:58 60.32264 24.96700 164 ft 19 kts 46°
2026-05-07 19:58 60.32363 24.96906 164 ft 21 kts 46°
2026-05-07 19:59 60.32448 24.97116 166 ft 5 kts 51°
2026-05-07 19:59 60.32450 24.97120 166 ft 2 kts 51°
2026-05-07 19:59 60.32489 24.97206 164 ft 2 kts 45°
2026-05-07 19:59 60.32514 24.97258 164 ft 8 kts 45°
2026-05-07 20:00 60.32540 24.97315 163 ft 6 kts 48°
2026-05-07 20:00 60.32579 24.97402 163 ft 10 kts 48°
2026-05-07 20:00 60.32636 24.97529 162 ft 14 kts 48°
2026-05-07 20:00 60.32709 24.97693 161 ft 17 kts 47°
2026-05-07 20:01 60.32789 24.97879 160 ft 18 kts 50°
2026-05-07 20:01 60.32884 24.98063 159 ft 20 kts 20°
2026-05-07 20:01 60.32953 24.98059 159 ft 0 kts 335°
2026-05-07 20:02 60.32958 24.98055 159 ft 7 kts 334°
2026-05-07 20:03 60.33024 24.97919 160 ft 15 kts 281°
2026-05-07 20:03 60.32983 24.97727 161 ft 16 kts 228°
2026-05-07 20:03 60.32896 24.97545 160 ft 20 kts 226°
2026-05-07 20:03 60.32790 24.97324 161 ft 23 kts 226°
2026-05-07 20:04 60.32679 24.97077 165 ft 25 kts 232°
2026-05-07 20:04 60.32563 24.96800 165 ft 27 kts 227°
2026-05-07 20:04 60.32480 24.96523 162 ft 23 kts 276°
2026-05-07 20:04 60.32590 24.96330 165 ft 21 kts 332°
2026-05-07 20:05 60.32720 24.96184 167 ft 22 kts 330°
2026-05-07 20:05 60.32849 24.96030 170 ft 22 kts 329°
2026-05-07 20:05 60.32979 24.95870 172 ft 22 kts 328°
2026-05-07 20:05 60.33110 24.95700 174 ft 22 kts 317°
2026-05-07 20:06 60.33207 24.95468 177 ft 21 kts 278°
2026-05-07 20:06 60.33144 24.95248 180 ft 18 kts 228°
2026-05-07 20:06 60.33111 24.95024 192 ft 16 kts 271°
2026-05-07 20:06 60.33114 24.94796 187 ft 16 kts 272°
2026-05-07 20:07 60.33118 24.94564 189 ft 17 kts 272°
2026-05-07 20:07 60.33090 24.94356 194 ft 15 kts 228°
2026-05-07 20:07 60.33039 24.94222 194 ft 0 kts 229°
2026-05-07 20:08 60.32897 24.93908 182 ft 75 kts 227°
2026-05-07 20:08 60.32362 24.92716 169 ft 150 kts 229°
2026-05-07 20:08 60.31575 24.90999 707 ft 168 kts 228°
2026-05-07 20:08 60.30777 24.89273 1739 ft 170 kts 231°
2026-05-07 20:09 60.29959 24.87490 2503 ft 181 kts 231°
2026-05-07 20:09 60.29065 24.85512 3057 ft 200 kts 232°
2026-05-07 20:09 60.28414 24.82975 3580 ft 215 kts 265°
2026-05-07 20:10 60.29624 24.77395 4717 ft 246 kts 327°
2026-05-07 20:10 60.31254 24.76233 5493 ft 256 kts 356°
2026-05-07 20:10 60.33048 24.76572 6443 ft 263 kts 11°
2026-05-07 20:10 60.34858 24.77367 7363 ft 268 kts 11°
2026-05-07 20:11 60.36698 24.78084 8343 ft 271 kts
2026-05-07 20:11 60.38578 24.78624 9300 ft 275 kts
2026-05-07 20:11 60.40493 24.79025 10250 ft 278 kts
2026-05-07 20:11 60.42482 24.79361 10780 ft 298 kts
2026-05-07 20:12 60.44626 24.79557 11100 ft 319 kts 356°
2026-05-07 20:12 60.46894 24.79648 11715 ft 330 kts 358°
2026-05-07 20:12 60.49200 24.79754 12574 ft 334 kts 356°
2026-05-07 20:12 60.51537 24.79850 13450 ft 338 kts 356°
2026-05-07 20:13 60.53897 24.79988 14245 ft 342 kts 356°
2026-05-07 20:13 60.56289 24.80166 14981 ft 346 kts 356°
2026-05-07 20:13 60.58710 24.80372 15729 ft 350 kts 355°
2026-05-07 20:13 60.61159 24.80593 16460 ft 354 kts 355°
2026-05-07 20:14 60.63629 24.80820 17210 ft 357 kts 355°
2026-05-07 20:14 60.66129 24.81051 17936 ft 361 kts 354°
2026-05-07 20:14 60.68656 24.81284 18604 ft 365 kts 354°
2026-05-07 20:14 60.71209 24.81518 19192 ft 370 kts 354°
2026-05-07 20:15 60.73797 24.81755 19771 ft 375 kts 354°
2026-05-07 20:15 60.76417 24.81996 20342 ft 379 kts 354°
2026-05-07 20:15 60.79069 24.82241 20925 ft 384 kts 353°
2026-05-07 20:15 60.81750 24.82492 21514 ft 389 kts 354°
2026-05-07 20:16 60.84478 24.83076 22081 ft 397 kts 358°
2026-05-07 20:16 60.87236 24.83735 22622 ft 402 kts 357°
2026-05-07 20:16 60.89120 24.84179 22996 ft 404 kts 357°
2026-05-07 20:16 60.92849 24.85053 23716 ft 410 kts 357°
2026-05-07 20:17 60.95697 24.85723 24206 ft 413 kts 357°
2026-05-07 20:17 60.97632 24.86180 24546 ft 415 kts 357°
2026-05-07 20:17 61.00509 24.86862 25037 ft 417 kts 357°
2026-05-07 20:17 61.03401 24.87547 25506 ft 420 kts 357°
2026-05-07 20:18 61.06318 24.88239 25966 ft 423 kts 357°
2026-05-07 20:18 61.09255 24.88938 26418 ft 426 kts 357°
2026-05-07 20:18 61.12206 24.89642 26859 ft 429 kts 357°
2026-05-07 20:18 61.15183 24.90354 27301 ft 432 kts 357°
2026-05-07 20:19 61.18176 24.91071 27716 ft 435 kts 357°
2026-05-07 20:19 61.21189 24.91793 28106 ft 438 kts 357°
2026-05-07 20:19 61.24225 24.92523 28486 ft 441 kts 357°
2026-05-07 20:19 61.27279 24.93260 28865 ft 443 kts 357°
2026-05-07 20:20 61.30353 24.94003 29219 ft 446 kts 357°
2026-05-07 20:20 61.33450 24.94753 29580 ft 449 kts 357°
2026-05-07 20:20 61.36563 24.95508 29916 ft 452 kts 357°
2026-05-07 20:20 61.39698 24.96270 30245 ft 455 kts 357°
2026-05-07 20:21 61.42853 24.97038 30540 ft 458 kts 358°
2026-05-07 20:21 61.46027 24.97811 30810 ft 461 kts 358°
2026-05-07 20:21 61.49220 24.98591 31090 ft 463 kts 358°
2026-05-07 20:21 61.52430 24.99377 31420 ft 465 kts 358°
2026-05-07 20:22 61.55642 25.00168 31789 ft 465 kts 359°
2026-05-07 20:22 61.58853 25.00959 32163 ft 465 kts 359°
2026-05-07 20:22 61.62059 25.01583 32531 ft 460 kts 354°
2026-05-07 20:22 61.65248 25.01678 32874 ft 459 kts 353°
2026-05-07 20:23 61.68441 25.01790 33233 ft 459 kts 353°
2026-05-07 20:23 61.71634 25.01918 33577 ft 459 kts 354°
2026-05-07 20:23 61.74824 25.02046 33906 ft 459 kts 354°
2026-05-07 20:23 61.78022 25.02171 34202 ft 459 kts 354°
2026-05-07 20:24 61.81215 25.02294 34470 ft 459 kts 354°
2026-05-07 20:24 61.84414 25.02415 34725 ft 460 kts 354°
2026-05-07 20:24 61.87611 25.02535 34961 ft 460 kts 354°
2026-05-07 20:24 61.90817 25.02656 35210 ft 460 kts 354°
2026-05-07 20:25 61.94018 25.02776 35462 ft 461 kts 354°
2026-05-07 20:25 61.97228 25.02898 35686 ft 461 kts 355°
2026-05-07 20:25 62.00437 25.03021 35941 ft 461 kts 355°
2026-05-07 20:25 62.03648 25.03143 36151 ft 462 kts 355°
2026-05-07 20:26 62.06855 25.03266 36391 ft 461 kts 355°
2026-05-07 20:26 62.10066 25.03390 36616 ft 461 kts 355°
2026-05-07 20:26 62.13273 25.03514 36833 ft 461 kts 355°
2026-05-07 20:26 62.16487 25.03638 37050 ft 461 kts 355°
2026-05-07 20:27 62.19693 25.03761 37266 ft 461 kts 355°
2026-05-07 20:27 62.22902 25.03884 37451 ft 461 kts 355°
2026-05-07 20:27 62.26111 25.04006 37657 ft 461 kts 355°
2026-05-07 20:27 62.29322 25.04130 37849 ft 461 kts 356°
2026-05-07 20:28 62.32529 25.04253 38025 ft 461 kts 356°
2026-05-07 20:28 62.35738 25.04378 38213 ft 461 kts 356°
2026-05-07 20:28 62.38941 25.04503 38228 ft 459 kts 356°
2026-05-07 20:28 62.42082 25.04628 37968 ft 456 kts 356°
2026-05-07 20:29 62.45246 25.04753 37436 ft 454 kts 355°
2026-05-07 20:29 62.48393 25.04878 37014 ft 448 kts 355°
2026-05-07 20:29 62.51464 25.05006 36894 ft 435 kts 355°
2026-05-07 20:29 62.54483 25.05133 36768 ft 422 kts 355°
2026-05-07 20:30 62.57363 25.05247 36246 ft 420 kts 355°
2026-05-07 20:30 62.60308 25.05351 35432 ft 426 kts 355°
2026-05-07 20:30 62.63341 25.05458 34598 ft 433 kts 355°
2026-05-07 20:30 62.66346 25.05577 34167 ft 429 kts 355°
2026-05-07 20:31 62.69271 25.05699 33721 ft 424 kts 354°
2026-05-07 20:31 62.72205 25.05816 33257 ft 419 kts 354°
2026-05-07 20:31 62.75122 25.05926 32512 ft 421 kts 354°
2026-05-07 20:31 62.78063 25.06031 31851 ft 422 kts 355°
2026-05-07 20:32 62.81024 25.06148 31374 ft 418 kts 355°
2026-05-07 20:32 62.83884 25.06264 30815 ft 416 kts 355°
2026-05-07 20:32 62.86816 25.06380 30171 ft 417 kts 355°
2026-05-07 20:32 62.89723 25.06493 29307 ft 419 kts 355°
2026-05-07 20:33 62.92644 25.06606 28470 ft 420 kts 355°
2026-05-07 20:33 62.95570 25.06722 27641 ft 421 kts 355°
2026-05-07 20:33 62.98502 25.06841 26858 ft 422 kts 355°
2026-05-07 20:33 63.01439 25.06960 26081 ft 422 kts 356°
2026-05-07 20:34 63.04367 25.07079 25342 ft 421 kts 356°
2026-05-07 20:34 63.07295 25.07198 24607 ft 420 kts 356°
2026-05-07 20:34 63.10210 25.07317 23893 ft 418 kts 356°
2026-05-07 20:34 63.13113 25.07436 23061 ft 416 kts 356°
2026-05-07 20:35 63.15998 25.07552 22207 ft 414 kts 357°
2026-05-07 20:35 63.18870 25.07667 21371 ft 411 kts 357°
2026-05-07 20:35 63.21701 25.07783 20544 ft 401 kts 357°
2026-05-07 20:35 63.24451 25.07899 19764 ft 390 kts 358°
2026-05-07 20:36 63.27133 25.08009 18994 ft 380 kts 358°
2026-05-07 20:36 63.29747 25.08116 18214 ft 371 kts 358°
2026-05-07 20:36 63.32307 25.08218 17380 ft 367 kts 358°
2026-05-07 20:36 63.34868 25.08317 16545 ft 368 kts 358°
2026-05-07 20:37 63.37428 25.08417 15734 ft 368 kts 358°
2026-05-07 20:37 63.39989 25.08519 14939 ft 368 kts 359°
2026-05-07 20:37 63.42548 25.08622 14177 ft 367 kts 359°
2026-05-07 20:37 63.45097 25.08726 13431 ft 364 kts 359°
2026-05-07 20:38 63.47580 25.08832 12730 ft 351 kts 359°
2026-05-07 20:38 63.49982 25.08936 12052 ft 340 kts 359°
2026-05-07 20:38 63.52309 25.09034 11401 ft 330 kts 359°
2026-05-07 20:38 63.54562 25.09128 10873 ft 318 kts 358°
2026-05-07 20:39 63.56741 25.09219 10365 ft 309 kts 358°
2026-05-07 20:39 63.58858 25.09305 9900 ft 307 kts 358°
2026-05-07 20:39 63.60974 25.09391 9476 ft 302 kts 358°
2026-05-07 20:39 63.63081 25.09477 9049 ft 297 kts 359°
2026-05-07 20:40 63.65103 25.09561 8660 ft 292 kts 359°
2026-05-07 20:40 63.67116 25.09646 8351 ft 285 kts 359°
2026-05-07 20:40 63.69072 25.09730 8079 ft 277 kts 359°
2026-05-07 20:40 63.70976 25.09811 7814 ft 270 kts 359°
2026-05-07 20:41 63.72829 25.09889 7542 ft 263 kts 359°
2026-05-07 20:41 63.74680 25.09966 7289 ft 264 kts 359°
2026-05-07 20:41 63.76485 25.10040 7137 ft 261 kts 359°
2026-05-07 20:41 63.78303 25.10115 7127 ft 262 kts 359°
2026-05-07 20:42 63.80128 25.10191 7136 ft 262 kts 359°
2026-05-07 20:42 63.81953 25.10267 7127 ft 262 kts 359°
2026-05-07 20:42 63.83777 25.10343 7123 ft 262 kts 359°
2026-05-07 20:42 63.85599 25.10421 7133 ft 262 kts 359°
2026-05-07 20:43 63.87423 25.10498 7132 ft 262 kts 359°
2026-05-07 20:43 63.89244 25.10575 7133 ft 262 kts 359°
2026-05-07 20:43 63.91068 25.10651 7127 ft 262 kts 359°
2026-05-07 20:43 63.92893 25.10728 7135 ft 262 kts 359°
2026-05-07 20:44 63.94713 25.10806 7127 ft 262 kts 359°
2026-05-07 20:44 63.96538 25.10883 7135 ft 262 kts 359°
2026-05-07 20:44 63.98364 25.10960 7132 ft 263 kts 359°
2026-05-07 20:44 64.00192 25.11038 7125 ft 263 kts 359°
2026-05-07 20:45 64.02020 25.11115 7128 ft 263 kts 359°
2026-05-07 20:45 64.03847 25.11193 7134 ft 263 kts 359°
2026-05-07 20:45 64.05675 25.11271 7127 ft 263 kts 359°
2026-05-07 20:45 64.07504 25.11348 7129 ft 263 kts 359°
2026-05-07 20:46 64.09335 25.11426 7124 ft 263 kts 359°
2026-05-07 20:46 64.11165 25.11505 7128 ft 263 kts 360°
2026-05-07 20:46 64.12981 25.11583 7127 ft 255 kts 359°
2026-05-07 20:46 64.14705 25.11660 7122 ft 240 kts 359°
2026-05-07 20:47 64.16338 25.11734 7120 ft 224 kts 359°
2026-05-07 20:47 64.17877 25.11800 7128 ft 224 kts 359°
2026-05-07 20:47 64.19433 25.11864 7123 ft 223 kts 359°
2026-05-07 20:47 64.20979 25.11928 7129 ft 222 kts 359°
2026-05-07 20:48 64.22523 25.11993 7132 ft 222 kts 359°
2026-05-07 20:48 64.24067 25.12060 7129 ft 222 kts 359°
2026-05-07 20:48 64.25619 25.12126 7133 ft 228 kts 359°
2026-05-07 20:48 64.27321 25.12193 7135 ft 253 kts 360°
2026-05-07 20:49 64.29078 25.12267 7132 ft 252 kts 360°
2026-05-07 20:49 64.30835 25.12346 7133 ft 253 kts 360°
2026-05-07 20:49 64.32595 25.12424 7133 ft 253 kts 360°
2026-05-07 20:49 64.34356 25.12502 7138 ft 253 kts 360°
2026-05-07 20:50 64.36117 25.12579 7136 ft 253 kts 360°
2026-05-07 20:50 64.37876 25.12655 7122 ft 253 kts 360°
2026-05-07 20:50 64.39634 25.12731 7128 ft 253 kts 360°
2026-05-07 20:50 64.41393 25.12808 7131 ft 253 kts 360°
2026-05-07 20:51 64.43140 25.13333 7136 ft 255 kts 15°
2026-05-07 20:51 64.44752 25.15035 7129 ft 257 kts 30°
2026-05-07 20:51 64.46266 25.17240 7130 ft 257 kts 30°
2026-05-07 20:51 64.47786 25.19418 7129 ft 257 kts 30°
2026-05-07 20:52 64.49310 25.21585 7135 ft 257 kts 30°
2026-05-07 20:52 64.50836 25.23752 7132 ft 257 kts 30°
2026-05-07 20:52 64.52361 25.25920 7126 ft 257 kts 30°
2026-05-07 20:52 64.53884 25.28090 7133 ft 257 kts 30°
2026-05-07 20:53 64.55409 25.30267 7125 ft 257 kts 30°
2026-05-07 20:53 64.56932 25.32445 7133 ft 257 kts 30°
2026-05-07 20:53 64.58454 25.34626 7124 ft 257 kts 30°
2026-05-07 20:53 64.59979 25.36811 7121 ft 257 kts 30°
2026-05-07 20:54 64.61500 25.38996 7074 ft 255 kts 30°
2026-05-07 20:54 64.62983 25.41130 6949 ft 248 kts 30°
2026-05-07 20:54 64.64462 25.43260 6462 ft 253 kts 30°
2026-05-07 20:54 64.65458 25.44694 6172 ft 254 kts 30°
2026-05-07 20:55 64.67465 25.47591 5652 ft 253 kts 30°
2026-05-07 20:55 64.68964 25.49760 5271 ft 253 kts 30°
2026-05-07 20:55 64.70455 25.51920 4909 ft 252 kts 30°
2026-05-07 20:55 64.71961 25.54101 4396 ft 257 kts 30°
2026-05-07 20:56 64.72969 25.55563 4110 ft 258 kts 30°
2026-05-07 20:56 64.74490 25.57774 3721 ft 257 kts 30°
2026-05-07 20:56 64.76009 25.59985 3325 ft 257 kts 30°
2026-05-07 20:56 64.77529 25.62193 2924 ft 257 kts 30°
2026-05-07 20:57 64.79047 25.64360 2530 ft 257 kts 30°
2026-05-07 20:57 64.80580 25.66532 2138 ft 256 kts 30°
2026-05-07 20:57 64.82135 25.68435 1944 ft 246 kts 14°
2026-05-07 20:57 64.83760 25.68513 1926 ft 227 kts 342°
2026-05-07 20:58 64.85033 25.66689 1920 ft 208 kts 309°
2026-05-07 20:58 64.85765 25.63913 1917 ft 192 kts 298°
2026-05-07 20:58 64.86386 25.61334 1922 ft 175 kts 299°
2026-05-07 20:58 64.87010 25.58838 1922 ft 177 kts 300°
2026-05-07 20:59 64.87641 25.56362 1927 ft 176 kts 300°
2026-05-07 20:59 64.88276 25.53896 1932 ft 176 kts 300°
2026-05-07 20:59 64.88911 25.51435 1924 ft 175 kts 300°
2026-05-07 20:59 64.89511 25.49120 1920 ft 153 kts 300°
2026-05-07 21:00 64.90039 25.47079 1745 ft 145 kts 300°
2026-05-07 21:00 64.90553 25.45085 1475 ft 138 kts 300°
2026-05-07 21:00 64.91053 25.43137 1195 ft 140 kts 300°
2026-05-07 21:00 64.91540 25.41238 873 ft 133 kts 299°
2026-05-07 21:01 64.92035 25.39293 384 ft 140 kts 300°
2026-05-07 21:01 64.92538 25.37399 134 ft 130 kts 295°
2026-05-07 21:01 64.92971 25.35653 49 ft 111 kts 294°
2026-05-07 21:01 64.93298 25.34324 52 ft 65 kts 301°
2026-05-07 21:02 64.93493 25.34085 54 ft 29 kts 34°
2026-05-07 21:02 64.93477 25.34390 52 ft 21 kts 126°
2026-05-07 21:02 64.93401 25.34703 49 ft 23 kts 119°
2026-05-07 21:02 64.93319 25.35044 51 ft 25 kts 120°
2026-05-07 21:03 64.93227 25.35401 47 ft 26 kts 122°
2026-05-07 21:03 64.93127 25.35770 49 ft 27 kts 123°
2026-05-07 21:03 64.93027 25.36160 48 ft 28 kts 121°
2026-05-07 21:03 64.92924 25.36560 47 ft 29 kts 121°
2026-05-07 21:04 64.92850 25.36868 45 ft 16 kts 104°
2026-05-07 21:04 64.92875 25.37012 46 ft 0 kts 56°